Time,TemperatureF,DewpointF,PressureIn,WindDirection,WindDirectionDegrees,WindSpeedMPH,WindSpeedGustMPH,Humidity,HourlyPrecipIn,Conditions,Clouds,dailyrainin,SoftwareType,DateUTC
2013-06-08 00:00:00,65.3,54.0,29.58,NW,323,0.0,0.0,67,0.00,,,-99.99,Weather View 32 v60,2013-06-08 07:00:00,
2013-06-08 00:05:00,65.1,54.2,29.58,NW,323,0.0,0.0,68,0.00,,,-99.99,Weather View 32 v60,2013-06-08 07:05:00,
2013-06-08 00:10:00,64.9,54.1,29.58,NW,323,0.0,0.0,68,0.00,,,-99.99,Weather View 32 v60,2013-06-08 07:10:00,
2013-06-08 00:15:00,64.7,53.5,29.58,NW,323,0.0,0.0,67,0.00,,,-99.99,Weather View 32 v60,2013-06-08 07:15:00,
2013-06-08 00:20:00,64.5,53.7,29.58,NW,323,0.0,0.0,68,0.00,,,-99.99,Weather View 32 v60,2013-06-08 07:20:00,
2013-06-08 00:25:00,64.4,53.6,29.59,NW,323,0.0,0.0,68,0.00,,,-99.99,Weather View 32 v60,2013-06-08 07:25:00,
2013-06-08 00:30:00,64.3,53.9,29.59,NW,323,0.0,0.0,69,0.00,,,-99.99,Weather View 32 v60,2013-06-08 07:30:00,
2013-06-08 00:35:00,64.3,54.3,29.59,NW,323,0.0,0.0,70,0.00,,,-99.99,Weather View 32 v60,2013-06-08 07:35:00,
2013-06-08 00:45:00,63.9,53.5,29.58,NW,323,0.0,0.0,69,0.00,,,-99.99,Weather View 32 v60,2013-06-08 07:45:00,
2013-06-08 00:50:00,63.8,53.4,29.58,NW,323,0.0,0.0,69,0.00,,,-99.99,Weather View 32 v60,2013-06-08 07:50:00,
2013-06-08 00:55:00,63.6,53.2,29.58,NW,323,0.0,0.0,69,0.00,,,-99.99,Weather View 32 v60,2013-06-08 07:55:00,
2013-06-08 01:05:00,63.5,53.5,29.58,NW,323,0.0,0.0,70,0.00,,,-99.99,Weather View 32 v60,2013-06-08 08:05:00,
2013-06-08 01:10:00,63.3,53.3,29.57,NW,323,0.0,0.0,70,0.00,,,-99.99,Weather View 32 v60,2013-06-08 08:10:00,
2013-06-08 01:15:00,63.2,53.2,29.57,NW,323,0.0,0.0,70,0.00,,,-99.99,Weather View 32 v60,2013-06-08 08:15:00,
2013-06-08 01:20:00,63.1,53.5,29.57,NW,323,0.0,0.0,71,0.00,,,-99.99,Weather View 32 v60,2013-06-08 08:20:00,
2013-06-08 01:25:00,63.1,53.5,29.57,NW,323,0.0,0.0,71,0.00,,,-99.99,Weather View 32 v60,2013-06-08 08:25:00,
2013-06-08 01:30:00,63.1,53.5,29.57,NW,323,0.0,0.0,71,0.00,,,-99.99,Weather View 32 v60,2013-06-08 08:30:00,
2013-06-08 01:40:00,63.0,53.4,29.57,NW,323,0.0,0.0,71,0.00,,,-99.99,Weather View 32 v60,2013-06-08 08:40:00,
2013-06-08 01:50:00,62.9,53.3,29.57,NW,323,0.0,0.0,71,0.00,,,-99.99,Weather View 32 v60,2013-06-08 08:50:00,
2013-06-08 01:55:00,62.8,53.2,29.58,NW,323,0.0,0.0,71,0.00,,,-99.99,Weather View 32 v60,2013-06-08 08:55:00,
2013-06-08 02:05:00,62.6,52.7,29.58,NW,323,0.0,0.0,70,0.00,,,-99.99,Weather View 32 v60,2013-06-08 09:05:00,
2013-06-08 02:10:00,62.5,52.9,29.58,NW,323,0.0,0.0,71,0.00,,,-99.99,Weather View 32 v60,2013-06-08 09:10:00,
2013-06-08 02:20:00,62.3,52.8,29.58,NW,323,0.0,0.0,71,0.00,,,-99.99,Weather View 32 v60,2013-06-08 09:20:00,
2013-06-08 02:25:00,62.1,52.6,29.57,NW,323,0.0,0.0,71,0.00,,,-99.99,Weather View 32 v60,2013-06-08 09:25:00,
2013-06-08 02:30:00,62.0,52.8,29.58,NW,323,0.0,0.0,72,0.00,,,-99.99,Weather View 32 v60,2013-06-08 09:30:00,
2013-06-08 02:40:00,61.8,52.7,29.58,NW,323,0.0,0.0,72,0.00,,,-99.99,Weather View 32 v60,2013-06-08 09:40:00,
2013-06-08 02:45:00,61.7,52.9,29.58,NW,323,0.0,0.0,73,0.00,,,-99.99,Weather View 32 v60,2013-06-08 09:45:00,
2013-06-08 02:50:00,61.6,52.8,29.58,NW,323,0.0,0.0,73,0.00,,,-99.99,Weather View 32 v60,2013-06-08 09:50:00,
2013-06-08 03:00:00,61.4,52.6,29.58,NW,323,0.0,0.0,73,0.00,,,-99.99,Weather View 32 v60,2013-06-08 10:00:00,
2013-06-08 03:10:00,61.3,52.5,29.58,NW,323,0.0,0.0,73,0.00,,,-99.99,Weather View 32 v60,2013-06-08 10:10:00,
2013-06-08 03:15:00,61.2,52.8,29.58,NW,323,0.0,0.0,74,0.00,,,-99.99,Weather View 32 v60,2013-06-08 10:15:00,
2013-06-08 03:20:00,61.1,52.4,29.58,NW,323,0.0,0.0,73,0.00,,,-99.99,Weather View 32 v60,2013-06-08 10:20:00,
2013-06-08 03:25:00,61.1,52.7,29.58,NW,323,0.0,0.0,74,0.00,,,-99.99,Weather View 32 v60,2013-06-08 10:25:00,
2013-06-08 03:35:00,60.9,52.9,29.58,NW,323,0.0,0.0,75,0.00,,,-99.99,Weather View 32 v60,2013-06-08 10:35:00,
2013-06-08 03:40:00,60.8,52.8,29.58,NW,323,0.0,0.0,75,0.00,,,-99.99,Weather View 32 v60,2013-06-08 10:40:00,
2013-06-08 03:45:00,60.7,52.7,29.58,NW,323,0.0,0.0,75,0.00,,,-99.99,Weather View 32 v60,2013-06-08 10:45:00,
2013-06-08 03:51:00,60.6,52.2,29.58,NW,323,0.0,0.0,74,0.00,,,-99.99,Weather View 32 v60,2013-06-08 10:51:00,
2013-06-08 04:00:00,60.3,52.3,29.57,NW,323,0.0,0.0,75,0.00,,,-99.99,Weather View 32 v60,2013-06-08 11:00:00,
2013-06-08 04:05:00,60.2,52.2,29.57,NW,323,0.0,0.0,75,0.00,,,-99.99,Weather View 32 v60,2013-06-08 11:05:00,
2013-06-08 04:10:00,60.1,52.1,29.57,NW,323,0.0,0.0,75,0.00,,,-99.99,Weather View 32 v60,2013-06-08 11:10:00,
2013-06-08 04:15:00,60.0,52.0,29.57,NW,323,0.0,0.0,75,0.00,,,-99.99,Weather View 32 v60,2013-06-08 11:15:00,
2013-06-08 04:20:00,59.9,51.9,29.57,NW,323,0.0,0.0,75,0.00,,,-99.99,Weather View 32 v60,2013-06-08 11:20:00,
2013-06-08 04:30:00,59.8,52.2,29.57,NW,323,0.0,0.0,76,0.00,,,-99.99,Weather View 32 v60,2013-06-08 11:30:00,
2013-06-08 04:40:00,59.6,52.4,29.58,NW,323,0.0,0.0,77,0.00,,,-99.99,Weather View 32 v60,2013-06-08 11:40:00,
2013-06-08 04:45:00,59.6,52.4,29.58,NW,323,0.0,0.0,77,0.00,,,-99.99,Weather View 32 v60,2013-06-08 11:45:00,
2013-06-08 04:52:00,59.5,52.6,29.58,NW,323,0.0,0.0,78,0.00,,,-99.99,Weather View 32 v60,2013-06-08 11:52:00,
2013-06-08 05:00:00,59.4,52.5,29.58,NW,323,0.0,0.0,78,0.00,,,-99.99,Weather View 32 v60,2013-06-08 12:00:00,
2013-06-08 05:05:00,59.2,52.3,29.58,NW,323,0.0,0.0,78,0.00,,,-99.99,Weather View 32 v60,2013-06-08 12:05:00,
2013-06-08 05:10:00,59.2,52.3,29.58,NW,323,0.0,0.0,78,0.00,,,-99.99,Weather View 32 v60,2013-06-08 12:10:00,
2013-06-08 05:15:00,59.1,52.2,29.58,NW,323,0.0,0.0,78,0.00,,,-99.99,Weather View 32 v60,2013-06-08 12:15:00,
2013-06-08 05:25:00,59.0,52.5,29.57,NW,323,0.0,0.0,79,0.00,,,-99.99,Weather View 32 v60,2013-06-08 12:25:00,
2013-06-08 05:30:00,58.9,52.4,29.57,NW,323,0.0,0.0,79,0.00,,,-99.99,Weather View 32 v60,2013-06-08 12:30:00,
2013-06-08 05:35:00,58.9,52.4,29.57,NW,323,0.0,0.0,79,0.00,,,-99.99,Weather View 32 v60,2013-06-08 12:35:00,
2013-06-08 05:40:00,58.9,52.4,29.58,NW,323,0.0,0.0,79,0.00,,,-99.99,Weather View 32 v60,2013-06-08 12:40:00,
2013-06-08 05:45:00,58.8,52.6,29.57,NW,323,0.0,0.0,80,0.00,,,-99.99,Weather View 32 v60,2013-06-08 12:45:00,
2013-06-08 05:50:00,58.8,52.3,29.57,NW,323,0.0,0.0,79,0.00,,,-99.99,Weather View 32 v60,2013-06-08 12:50:00,
2013-06-08 05:55:00,58.7,52.2,29.57,NW,323,0.0,0.0,79,0.00,,,-99.99,Weather View 32 v60,2013-06-08 12:55:00,
2013-06-08 06:05:00,58.6,52.1,29.58,NW,323,0.0,0.0,79,0.00,,,-99.99,Weather View 32 v60,2013-06-08 13:05:00,
2013-06-08 06:15:00,58.6,52.4,29.58,NW,323,0.0,0.0,80,0.00,,,-99.99,Weather View 32 v60,2013-06-08 13:15:00,
2013-06-08 06:20:00,58.6,52.4,29.58,NW,323,0.0,0.0,80,0.00,,,-99.99,Weather View 32 v60,2013-06-08 13:20:00,
2013-06-08 06:30:00,58.7,52.9,29.58,NW,323,0.0,0.0,81,0.00,,,-99.99,Weather View 32 v60,2013-06-08 13:30:00,
2013-06-08 06:35:00,58.8,53.0,29.59,NW,323,0.0,0.0,81,0.00,,,-99.99,Weather View 32 v60,2013-06-08 13:35:00,
2013-06-08 06:40:00,58.8,53.0,29.59,NW,323,0.0,0.0,81,0.00,,,-99.99,Weather View 32 v60,2013-06-08 13:40:00,
2013-06-08 06:45:00,58.9,53.1,29.59,NW,323,0.0,0.0,81,0.00,,,-99.99,Weather View 32 v60,2013-06-08 13:45:00,
2013-06-08 06:50:00,58.9,53.1,29.59,NW,323,0.0,0.0,81,0.00,,,-99.99,Weather View 32 v60,2013-06-08 13:50:00,
2013-06-08 07:00:00,59.1,53.6,29.59,NW,323,0.0,0.0,82,0.00,,,-99.99,Weather View 32 v60,2013-06-08 14:00:00,
2013-06-08 07:05:00,59.2,53.7,29.59,NW,323,0.0,0.0,82,0.00,,,-99.99,Weather View 32 v60,2013-06-08 14:05:00,
2013-06-08 07:15:00,59.4,53.9,29.59,NW,323,0.0,0.0,82,0.00,,,-99.99,Weather View 32 v60,2013-06-08 14:15:00,
2013-06-08 07:20:00,59.5,54.0,29.59,NW,323,0.0,0.0,82,0.00,,,-99.99,Weather View 32 v60,2013-06-08 14:20:00,
2013-06-08 07:25:00,59.6,54.1,29.59,NW,323,0.0,0.0,82,0.00,,,-99.99,Weather View 32 v60,2013-06-08 14:25:00,
2013-06-08 07:30:00,59.7,54.2,29.59,NW,323,0.0,0.0,82,0.00,,,-99.99,Weather View 32 v60,2013-06-08 14:30:00,
2013-06-08 07:35:00,59.9,54.4,29.59,NW,323,0.0,0.0,82,0.00,,,-99.99,Weather View 32 v60,2013-06-08 14:35:00,
2013-06-08 07:40:00,60.0,54.5,29.59,NW,323,0.0,0.0,82,0.00,,,-99.99,Weather View 32 v60,2013-06-08 14:40:00,
2013-06-08 07:45:00,60.1,54.6,29.60,NW,323,0.0,0.0,82,0.00,,,-99.99,Weather View 32 v60,2013-06-08 14:45:00,
2013-06-08 07:50:00,60.2,54.7,29.59,NW,323,0.0,0.0,82,0.00,,,-99.99,Weather View 32 v60,2013-06-08 14:50:00,
2013-06-08 07:55:00,60.4,54.9,29.60,NW,323,0.0,0.0,82,0.00,,,-99.99,Weather View 32 v60,2013-06-08 14:55:00,
2013-06-08 08:00:00,60.6,55.1,29.60,NW,323,0.0,0.0,82,0.00,,,-99.99,Weather View 32 v60,2013-06-08 15:00:00,
2013-06-08 08:10:00,60.9,55.4,29.59,NW,323,0.0,0.0,82,0.00,,,-99.99,Weather View 32 v60,2013-06-08 15:10:00,
2013-06-08 08:15:00,61.1,55.5,29.60,NW,323,0.0,0.0,82,0.00,,,-99.99,Weather View 32 v60,2013-06-08 15:15:00,
2013-06-08 08:25:00,61.6,56.4,29.60,NW,323,0.0,0.0,83,0.00,,,-99.99,Weather View 32 v60,2013-06-08 15:25:00,
2013-06-08 08:30:00,61.9,56.7,29.59,NW,323,0.0,0.0,83,0.00,,,-99.99,Weather View 32 v60,2013-06-08 15:30:00,
2013-06-08 08:40:00,62.4,56.8,29.59,NW,323,0.0,0.0,82,0.00,,,-99.99,Weather View 32 v60,2013-06-08 15:40:00,
2013-06-08 08:50:00,63.3,57.4,29.59,NW,323,0.0,0.0,81,0.00,,,-99.99,Weather View 32 v60,2013-06-08 15:50:00,
2013-06-08 08:55:00,63.7,57.7,29.59,NW,323,0.0,0.0,81,0.00,,,-99.99,Weather View 32 v60,2013-06-08 15:55:00,
2013-06-08 09:05:00,65.0,57.6,29.59,NW,323,0.0,0.0,77,0.00,,,-99.99,Weather View 32 v60,2013-06-08 16:05:00,
2013-06-08 09:10:00,65.7,58.3,29.59,NW,323,0.0,0.0,77,0.00,,,-99.99,Weather View 32 v60,2013-06-08 16:10:00,
2013-06-08 09:15:00,66.5,58.7,29.59,NW,323,0.0,0.0,76,0.00,,,-99.99,Weather View 32 v60,2013-06-08 16:15:00,
2013-06-08 09:20:00,67.5,58.9,29.59,NW,325,0.0,0.0,74,0.00,,,-99.99,Weather View 32 v60,2013-06-08 16:20:00,
2013-06-08 09:30:00,69.0,59.2,29.59,NE,42,0.0,0.0,71,0.00,,,-99.99,Weather View 32 v60,2013-06-08 16:30:00,
2013-06-08 09:35:00,69.8,59.5,29.59,NNE,13,0.0,0.0,70,0.00,,,-99.99,Weather View 32 v60,2013-06-08 16:35:00,
2013-06-08 09:40:00,70.5,59.8,29.59,NNE,13,0.0,0.0,69,0.00,,,-99.99,Weather View 32 v60,2013-06-08 16:40:00,
2013-06-08 09:45:00,71.1,60.4,0.00,North,9,0.0,0.0,69,0.00,,,-99.99,Weather View 32 v60,2013-06-08 16:45:00,
2013-06-08 09:50:00,71.9,61.1,29.59,North,8,0.0,0.0,69,0.00,,,-99.99,Weather View 32 v60,2013-06-08 16:50:00,
2013-06-08 09:55:00,72.6,61.0,29.59,North,0,0.0,0.0,67,0.00,,,-99.99,Weather View 32 v60,2013-06-08 16:55:00,
2013-06-08 10:00:00,73.3,61.2,29.59,North,359,0.0,0.0,66,0.00,,,-99.99,Weather View 32 v60,2013-06-08 17:00:00,
2013-06-08 10:10:00,74.5,61.5,29.59,North,355,0.0,0.0,64,0.00,,,-99.99,Weather View 32 v60,2013-06-08 17:10:00,
2013-06-08 10:20:00,75.6,62.1,29.58,North,0,0.0,0.0,63,0.00,,,-99.99,Weather View 32 v60,2013-06-08 17:20:00,
2013-06-08 10:25:00,76.1,62.5,29.58,North,0,0.0,0.0,63,0.00,,,-99.99,Weather View 32 v60,2013-06-08 17:25:00,
2013-06-08 10:30:00,76.5,62.5,29.58,North,0,0.0,0.0,62,0.00,,,-99.99,Weather View 32 v60,2013-06-08 17:30:00,
2013-06-08 10:40:00,77.4,62.8,29.58,North,358,0.0,0.0,61,0.00,,,-99.99,Weather View 32 v60,2013-06-08 17:40:00,
2013-06-08 10:45:00,77.8,62.8,29.58,North,351,0.0,0.0,60,0.00,,,-99.99,Weather View 32 v60,2013-06-08 17:45:00,
2013-06-08 10:50:00,78.1,62.6,29.58,North,351,0.0,0.0,59,0.00,,,-99.99,Weather View 32 v60,2013-06-08 17:50:00,
2013-06-08 10:55:00,78.6,63.0,29.58,North,351,0.0,0.0,59,0.00,,,-99.99,Weather View 32 v60,2013-06-08 17:55:00,
2013-06-08 11:00:00,79.0,62.4,29.58,North,354,0.0,0.0,57,0.00,,,-99.99,Weather View 32 v60,2013-06-08 18:00:00,
2013-06-08 11:10:00,79.7,63.1,29.58,North,357,0.0,0.0,57,0.00,,,-99.99,Weather View 32 v60,2013-06-08 18:10:00,
2013-06-08 11:15:00,80.1,63.4,29.58,NNE,18,0.0,0.0,57,0.00,,,-99.99,Weather View 32 v60,2013-06-08 18:15:00,
2013-06-08 11:20:00,80.4,63.7,29.58,North,0,0.0,0.0,57,0.00,,,-99.99,Weather View 32 v60,2013-06-08 18:20:00,
2013-06-08 11:25:00,80.6,63.9,29.58,North,0,0.0,0.0,57,0.00,,,-99.99,Weather View 32 v60,2013-06-08 18:25:00,
2013-06-08 11:30:00,80.7,63.5,29.58,North,0,0.0,0.0,56,0.00,,,-99.99,Weather View 32 v60,2013-06-08 18:30:00,
2013-06-08 11:35:00,81.3,63.5,29.57,NNW,344,0.0,0.0,55,0.00,,,-99.99,Weather View 32 v60,2013-06-08 18:35:00,
2013-06-08 11:40:00,81.7,63.9,29.57,NNW,346,0.0,0.0,55,0.00,,,-99.99,Weather View 32 v60,2013-06-08 18:40:00,
2013-06-08 11:45:00,82.2,63.8,29.57,North,3,0.0,0.0,54,0.00,,,-99.99,Weather View 32 v60,2013-06-08 18:45:00,
2013-06-08 11:50:00,82.6,63.7,29.57,North,0,0.0,0.0,53,0.00,,,-99.99,Weather View 32 v60,2013-06-08 18:50:00,
2013-06-08 11:55:00,83.1,64.1,29.57,NNW,343,0.0,0.0,53,0.00,,,-99.99,Weather View 32 v60,2013-06-08 18:55:00,
2013-06-08 12:00:00,83.4,63.9,29.57,ENE,62,0.0,0.0,52,0.00,,,-99.99,Weather View 32 v60,2013-06-08 19:00:00,
2013-06-08 12:05:00,83.8,64.2,29.57,North,0,0.0,0.0,52,0.00,,,-99.99,Weather View 32 v60,2013-06-08 19:05:00,
2013-06-08 12:10:00,84.0,63.9,29.57,NNW,345,0.0,0.0,51,0.00,,,-99.99,Weather View 32 v60,2013-06-08 19:10:00,
2013-06-08 12:15:00,84.2,64.0,29.57,NNW,343,0.0,0.0,51,0.00,,,-99.99,Weather View 32 v60,2013-06-08 19:15:00,
2013-06-08 12:20:00,84.3,63.6,29.57,NNW,334,0.0,0.0,50,0.00,,,-99.99,Weather View 32 v60,2013-06-08 19:20:00,
2013-06-08 12:30:00,84.7,63.9,29.57,North,0,0.0,0.0,50,0.00,,,-99.99,Weather View 32 v60,2013-06-08 19:30:00,
2013-06-08 12:35:00,84.9,63.5,29.57,ENE,61,0.0,0.0,49,0.00,,,-99.99,Weather View 32 v60,2013-06-08 19:35:00,
2013-06-08 12:40:00,85.1,63.7,29.57,North,3,0.0,0.0,49,0.00,,,-99.99,Weather View 32 v60,2013-06-08 19:40:00,
2013-06-08 12:45:00,85.3,63.9,29.57,North,0,0.0,0.0,49,0.00,,,-99.99,Weather View 32 v60,2013-06-08 19:45:00,
2013-06-08 12:50:00,85.6,64.2,29.57,North,7,0.0,0.0,49,0.00,,,-99.99,Weather View 32 v60,2013-06-08 19:50:00,
2013-06-08 12:55:00,85.9,63.3,29.57,North,0,0.0,0.0,47,0.00,,,-99.99,Weather View 32 v60,2013-06-08 19:55:00,
2013-06-08 13:05:00,86.7,63.4,29.57,NE,41,0.0,0.0,46,0.00,,,-99.99,Weather View 32 v60,2013-06-08 20:05:00,
2013-06-08 13:10:00,87.1,64.3,29.56,NE,35,0.0,0.0,47,0.00,,,-99.99,Weather View 32 v60,2013-06-08 20:10:00,
2013-06-08 13:15:00,87.5,64.1,29.56,North,357,0.0,0.0,46,0.00,,,-99.99,Weather View 32 v60,2013-06-08 20:15:00,
2013-06-08 13:20:00,87.9,63.8,29.56,NNW,345,0.0,0.0,45,0.00,,,-99.99,Weather View 32 v60,2013-06-08 20:20:00,
2013-06-08 13:25:00,88.1,64.0,29.56,NW,325,0.0,0.0,45,0.00,,,-99.99,Weather View 32 v60,2013-06-08 20:25:00,
2013-06-08 13:30:00,88.2,63.4,29.56,NW,323,0.0,0.0,44,0.00,,,-99.99,Weather View 32 v60,2013-06-08 20:30:00,
2013-06-08 13:35:00,88.3,63.5,29.56,NE,54,0.0,0.0,44,0.00,,,-99.99,Weather View 32 v60,2013-06-08 20:35:00,
2013-06-08 13:40:00,88.4,64.3,29.56,NNW,333,0.0,0.0,45,0.00,,,-99.99,Weather View 32 v60,2013-06-08 20:40:00,
2013-06-08 13:45:00,88.6,65.1,29.55,North,0,0.0,0.0,46,0.00,,,-99.99,Weather View 32 v60,2013-06-08 20:45:00,
2013-06-08 13:50:00,88.8,64.6,29.55,NNW,333,0.0,0.0,45,0.00,,,-99.99,Weather View 32 v60,2013-06-08 20:50:00,
2013-06-08 13:55:00,89.1,64.3,29.55,North,0,0.0,0.0,44,0.00,,,-99.99,Weather View 32 v60,2013-06-08 20:55:00,
2013-06-08 14:00:00,89.6,64.0,29.55,NE,41,0.0,0.0,43,0.00,,,-99.99,Weather View 32 v60,2013-06-08 21:00:00,
2013-06-08 14:05:00,89.9,64.3,29.55,NNE,12,0.0,0.0,43,0.00,,,-99.99,Weather View 32 v60,2013-06-08 21:05:00,
2013-06-08 14:10:00,90.2,63.9,29.55,NE,34,0.0,0.0,42,0.00,,,-99.99,Weather View 32 v60,2013-06-08 21:10:00,
2013-06-08 14:15:00,90.3,64.0,29.55,NNE,22,0.0,0.0,42,0.00,,,-99.99,Weather View 32 v60,2013-06-08 21:15:00,
2013-06-08 14:20:00,90.5,64.2,29.55,North,0,0.0,0.0,42,0.00,,,-99.99,Weather View 32 v60,2013-06-08 21:20:00,
2013-06-08 14:30:00,91.1,64.7,29.55,North,0,0.0,0.0,42,0.00,,,-99.99,Weather View 32 v60,2013-06-08 21:30:00,
2013-06-08 14:40:00,91.4,64.3,29.55,NNW,338,0.0,0.0,41,0.00,,,-99.99,Weather View 32 v60,2013-06-08 21:40:00,
2013-06-08 14:45:00,91.5,64.4,29.55,North,7,0.0,0.0,41,0.00,,,-99.99,Weather View 32 v60,2013-06-08 21:45:00,
2013-06-08 14:50:00,91.5,64.4,29.55,NNW,334,0.0,0.0,41,0.00,,,-99.99,Weather View 32 v60,2013-06-08 21:50:00,
2013-06-08 14:55:00,91.6,64.5,29.55,NNW,341,0.0,0.0,41,0.00,,,-99.99,Weather View 32 v60,2013-06-08 21:55:00,
2013-06-08 15:05:00,91.9,64.7,29.55,NNE,12,0.0,0.0,41,0.00,,,-99.99,Weather View 32 v60,2013-06-08 22:05:00,
2013-06-08 15:10:00,91.9,64.0,29.55,North,0,0.0,0.0,40,0.00,,,-99.99,Weather View 32 v60,2013-06-08 22:10:00,
2013-06-08 15:15:00,92.0,64.8,29.54,North,7,0.0,0.0,41,0.00,,,-99.99,Weather View 32 v60,2013-06-08 22:15:00,
2013-06-08 15:20:00,91.9,64.0,29.54,WSW,256,0.0,0.0,40,0.00,,,-99.99,Weather View 32 v60,2013-06-08 22:20:00,
2013-06-08 15:25:00,92.0,64.8,29.55,NW,308,0.0,0.0,41,0.00,,,-99.99,Weather View 32 v60,2013-06-08 22:25:00,
2013-06-08 15:30:00,92.2,64.3,29.55,NNW,346,0.0,0.0,40,0.00,,,-99.99,Weather View 32 v60,2013-06-08 22:30:00,
2013-06-08 15:35:00,92.1,64.9,29.55,NNE,25,0.0,0.0,41,0.00,,,-99.99,Weather View 32 v60,2013-06-08 22:35:00,
2013-06-08 15:40:00,92.2,65.0,29.54,NW,314,0.0,0.0,41,0.00,,,-99.99,Weather View 32 v60,2013-06-08 22:40:00,
2013-06-08 15:45:00,92.2,64.3,29.55,NNW,336,0.0,0.0,40,0.00,,,-99.99,Weather View 32 v60,2013-06-08 22:45:00,
2013-06-08 15:50:00,92.1,64.9,29.55,NNW,336,0.0,0.0,41,0.00,,,-99.99,Weather View 32 v60,2013-06-08 22:50:00,
2013-06-08 15:55:00,93.1,66.5,29.55,North,351,0.0,0.0,42,0.00,,,-99.99,Weather View 32 v60,2013-06-08 22:55:00,
2013-06-08 16:05:00,93.9,65.1,29.54,NE,39,0.0,0.0,39,0.00,,,-99.99,Weather View 32 v60,2013-06-08 23:05:00,
2013-06-08 16:10:00,94.2,66.8,29.54,NNW,335,0.0,0.0,41,0.00,,,-99.99,Weather View 32 v60,2013-06-08 23:10:00,
2013-06-08 16:15:00,94.6,64.9,29.54,NW,313,0.0,0.0,38,0.00,,,-99.99,Weather View 32 v60,2013-06-08 23:15:00,
2013-06-08 16:20:00,94.9,65.2,29.54,NW,308,0.0,0.0,38,0.00,,,-99.99,Weather View 32 v60,2013-06-08 23:20:00,
2013-06-08 16:25:00,95.1,64.6,29.54,NNW,327,0.0,0.0,37,0.00,,,-99.99,Weather View 32 v60,2013-06-08 23:25:00,
2013-06-08 16:30:00,94.8,64.4,29.54,NNW,344,0.0,0.0,37,0.00,,,-99.99,Weather View 32 v60,2013-06-08 23:30:00,
2013-06-08 16:35:00,94.8,65.9,29.54,NNW,341,0.0,0.0,39,0.00,,,-99.99,Weather View 32 v60,2013-06-08 23:35:00,
2013-06-08 16:40:00,94.7,65.0,29.54,North,358,0.0,0.0,38,0.00,,,-99.99,Weather View 32 v60,2013-06-08 23:40:00,
2013-06-08 16:45:00,94.7,64.3,29.54,NW,322,0.0,0.0,37,0.00,,,-99.99,Weather View 32 v60,2013-06-08 23:45:00,
2013-06-08 16:50:00,94.7,64.3,29.54,NNW,336,0.0,0.0,37,0.00,,,-99.99,Weather View 32 v60,2013-06-08 23:50:00,
2013-06-08 16:55:00,94.4,64.0,29.54,NNW,346,0.0,0.0,37,0.00,,,-99.99,Weather View 32 v60,2013-06-08 23:55:00,
2013-06-08 17:00:00,94.1,63.7,29.54,NW,313,0.0,0.0,37,0.00,,,-99.99,Weather View 32 v60,2013-06-09 00:00:00,
2013-06-08 17:10:00,93.9,63.6,29.54,West,261,0.0,0.0,37,0.00,,,-99.99,Weather View 32 v60,2013-06-09 00:10:00,
2013-06-08 17:15:00,93.4,62.3,29.54,NNW,333,0.0,0.0,36,0.00,,,-99.99,Weather View 32 v60,2013-06-09 00:15:00,
2013-06-08 17:20:00,92.7,63.3,29.54,NNW,346,0.0,0.0,38,0.00,,,-99.99,Weather View 32 v60,2013-06-09 00:20:00,
2013-06-08 17:25:00,91.8,61.7,29.55,North,349,0.0,0.0,37,0.00,,,-99.99,Weather View 32 v60,2013-06-09 00:25:00,
2013-06-08 17:30:00,91.1,61.1,29.54,NNW,334,0.0,0.0,37,0.00,,,-99.99,Weather View 32 v60,2013-06-09 00:30:00,
2013-06-08 17:35:00,90.2,61.1,29.54,NNE,24,0.0,0.0,38,0.00,,,-99.99,Weather View 32 v60,2013-06-09 00:35:00,
2013-06-08 17:40:00,89.6,60.5,29.54,NNW,333,0.0,0.0,38,0.00,,,-99.99,Weather View 32 v60,2013-06-09 00:40:00,
2013-06-08 17:50:00,89.0,60.7,29.54,NNW,343,0.0,0.0,39,0.00,,,-99.99,Weather View 32 v60,2013-06-09 00:50:00,
2013-06-08 17:55:00,88.8,59.8,29.54,North,351,0.0,0.0,38,0.00,,,-99.99,Weather View 32 v60,2013-06-09 00:55:00,
2013-06-08 18:00:00,88.5,58.8,29.55,NNW,330,0.0,0.0,37,0.00,,,-99.99,Weather View 32 v60,2013-06-09 01:00:00,
2013-06-08 18:05:00,87.9,59.0,29.54,NNW,337,0.0,0.0,38,0.00,,,-99.99,Weather View 32 v60,2013-06-09 01:05:00,
2013-06-08 18:10:00,87.2,59.8,29.55,NNW,332,0.0,0.0,40,0.00,,,-99.99,Weather View 32 v60,2013-06-09 01:10:00,
2013-06-08 18:15:00,86.8,59.5,29.55,North,0,0.0,0.0,40,0.00,,,-99.99,Weather View 32 v60,2013-06-09 01:15:00,
2013-06-08 18:20:00,86.5,59.2,29.54,NNW,338,0.0,0.0,40,0.00,,,-99.99,Weather View 32 v60,2013-06-09 01:20:00,
2013-06-08 18:25:00,86.2,59.0,29.55,NW,325,0.0,0.0,40,0.00,,,-99.99,Weather View 32 v60,2013-06-09 01:25:00,
2013-06-08 18:30:00,85.8,58.6,29.55,NNW,333,0.0,0.0,40,0.00,,,-99.99,Weather View 32 v60,2013-06-09 01:30:00,
2013-06-08 18:35:00,84.9,57.8,29.55,NW,314,0.0,0.0,40,0.00,,,-99.99,Weather View 32 v60,2013-06-09 01:35:00,
2013-06-08 18:40:00,84.1,58.4,29.55,North,0,0.0,0.0,42,0.00,,,-99.99,Weather View 32 v60,2013-06-09 01:40:00,
2013-06-08 18:45:00,83.5,57.9,29.56,North,359,0.0,0.0,42,0.00,,,-99.99,Weather View 32 v60,2013-06-09 01:45:00,
2013-06-08 18:50:00,83.0,58.1,29.56,NW,325,0.0,0.0,43,0.00,,,-99.99,Weather View 32 v60,2013-06-09 01:50:00,
2013-06-08 18:55:00,82.4,57.6,29.56,NNW,335,0.0,0.0,43,0.00,,,-99.99,Weather View 32 v60,2013-06-09 01:55:00,
2013-06-08 19:05:00,75.3,51.8,29.56,NNW,333,0.0,0.0,44,0.00,,,-99.99,Weather View 32 v60,2013-06-09 02:05:00,
2013-06-08 19:10:00,69.5,47.2,29.57,NNW,340,0.0,0.0,45,0.00,,,-99.99,Weather View 32 v60,2013-06-09 02:10:00,
2013-06-08 19:15:00,79.7,56.4,29.57,NNW,331,0.0,0.0,45,0.00,,,-99.99,Weather View 32 v60,2013-06-09 02:15:00,
2013-06-08 19:20:00,78.9,56.3,29.57,NNW,333,0.0,0.0,46,0.00,,,-99.99,Weather View 32 v60,2013-06-09 02:20:00,
2013-06-08 19:25:00,77.9,56.0,29.57,NNW,336,0.0,0.0,47,0.00,,,-99.99,Weather View 32 v60,2013-06-09 02:25:00,
2013-06-08 19:30:00,77.3,55.4,29.57,NNW,340,0.0,0.0,47,0.00,,,-99.99,Weather View 32 v60,2013-06-09 02:30:00,
2013-06-08 19:35:00,76.7,55.5,29.58,NNW,336,0.0,0.0,48,0.00,,,-99.99,Weather View 32 v60,2013-06-09 02:35:00,
2013-06-08 19:40:00,76.4,55.8,29.58,NW,310,0.0,0.0,49,0.00,,,-99.99,Weather View 32 v60,2013-06-09 02:40:00,
2013-06-08 19:45:00,76.0,56.0,29.58,NNW,330,0.0,0.0,50,0.00,,,-99.99,Weather View 32 v60,2013-06-09 02:45:00,
2013-06-08 19:50:00,75.8,55.8,29.58,NNW,330,0.0,0.0,50,0.00,,,-99.99,Weather View 32 v60,2013-06-09 02:50:00,
2013-06-08 19:55:00,75.4,56.0,29.58,NNE,16,0.0,0.0,51,0.00,,,-99.99,Weather View 32 v60,2013-06-09 02:55:00,
2013-06-08 20:00:00,75.1,55.7,29.59,NNE,16,0.0,0.0,51,0.00,,,-99.99,Weather View 32 v60,2013-06-09 03:00:00,
2013-06-08 20:10:00,74.4,55.0,29.59,North,0,0.0,0.0,51,0.00,,,-99.99,Weather View 32 v60,2013-06-09 03:10:00,
2013-06-08 20:15:00,73.9,54.6,29.59,North,0,0.0,0.0,51,0.00,,,-99.99,Weather View 32 v60,2013-06-09 03:15:00,
2013-06-08 20:20:00,73.4,54.7,29.59,North,0,0.0,0.0,52,0.00,,,-99.99,Weather View 32 v60,2013-06-09 03:20:00,
2013-06-08 20:25:00,72.9,54.7,29.59,North,0,0.0,0.0,53,0.00,,,-99.99,Weather View 32 v60,2013-06-09 03:25:00,
2013-06-08 20:30:00,72.3,54.7,29.60,North,0,0.0,0.0,54,0.00,,,-99.99,Weather View 32 v60,2013-06-09 03:30:00,
2013-06-08 20:35:00,71.1,54.1,29.60,North,0,0.0,0.0,55,0.00,,,-99.99,Weather View 32 v60,2013-06-09 03:35:00,
2013-06-08 20:40:00,70.2,53.2,29.60,North,0,0.0,0.0,55,0.00,,,-99.99,Weather View 32 v60,2013-06-09 03:40:00,
2013-06-08 20:50:00,70.5,54.5,29.60,North,0,0.0,0.0,57,0.00,,,-99.99,Weather View 32 v60,2013-06-09 03:50:00,
2013-06-08 20:55:00,70.3,54.3,29.60,North,0,0.0,0.0,57,0.00,,,-99.99,Weather View 32 v60,2013-06-09 03:55:00,
2013-06-08 21:00:00,70.0,54.0,29.61,North,0,0.0,0.0,57,0.00,,,-99.99,Weather View 32 v60,2013-06-09 04:00:00,
2013-06-08 21:01:00,70.0,54.0,29.61,North,0,0.0,0.0,57,0.00,,,-99.99,Weather View 32 v60,2013-06-09 04:01:00,
2013-06-08 21:05:00,69.5,53.6,29.61,North,0,0.0,3.0,57,0.00,,,-99.99,Weather View 32 v60,2013-06-09 04:05:00,
2013-06-08 21:10:00,69.0,53.6,29.61,North,0,0.0,3.0,58,0.00,,,-99.99,Weather View 32 v60,2013-06-09 04:10:00,
2013-06-08 21:15:00,68.6,53.7,29.61,North,0,2.0,3.0,59,0.00,,,-99.99,Weather View 32 v60,2013-06-09 04:15:00,
2013-06-08 21:20:00,67.8,53.4,29.61,NNW,329,0.0,6.0,60,0.00,,,-99.99,Weather View 32 v60,2013-06-09 04:20:00,
2013-06-08 21:25:00,67.1,53.2,29.62,NNW,329,3.0,6.0,61,0.00,,,-99.99,Weather View 32 v60,2013-06-09 04:25:00,
2013-06-08 21:30:00,66.4,52.5,29.62,North,0,2.0,6.0,61,0.00,,,-99.99,Weather View 32 v60,2013-06-09 04:30:00,
2013-06-08 21:35:00,65.5,52.1,29.62,North,0,1.0,7.0,62,0.00,,,-99.99,Weather View 32 v60,2013-06-09 04:35:00,
2013-06-08 21:40:00,64.9,52.0,29.63,NNW,347,2.0,7.0,63,0.00,,,-99.99,Weather View 32 v60,2013-06-09 04:40:00,
2013-06-08 21:45:00,59.2,46.6,29.63,NNW,347,0.0,7.0,63,0.00,,,-99.99,Weather View 32 v60,2013-06-09 04:45:00,
2013-06-08 21:50:00,60.7,48.4,29.63,NNW,346,3.0,7.0,64,0.00,,,-99.99,Weather View 32 v60,2013-06-09 04:50:00,
2013-06-08 21:55:00,63.4,51.4,29.63,NNW,340,2.0,7.0,65,0.00,,,-99.99,Weather View 32 v60,2013-06-09 04:55:00,
2013-06-08 22:00:00,61.5,50.0,29.64,NNW,340,0.0,7.0,66,0.00,,,-99.99,Weather View 32 v60,2013-06-09 05:00:00,
2013-06-08 22:05:00,51.0,41.2,29.64,NNW,340,1.0,7.0,69,0.00,,,-99.99,Weather View 32 v60,2013-06-09 05:05:00,
2013-06-08 22:15:00,61.2,50.5,29.64,NNW,338,3.0,7.0,68,0.00,,,-99.99,Weather View 32 v60,2013-06-09 05:15:00,
2013-06-08 22:20:00,44.6,35.0,29.64,NNW,341,0.0,7.0,69,0.00,,,-99.99,Weather View 32 v60,2013-06-09 05:20:00,
2013-06-08 22:25:00,59.9,49.7,29.65,NNW,341,1.0,7.0,69,0.00,,,-99.99,Weather View 32 v60,2013-06-09 05:25:00,
2013-06-08 22:30:00,60.7,50.8,29.65,NNW,341,4.0,7.0,70,0.00,,,-99.99,Weather View 32 v60,2013-06-09 05:30:00,
2013-06-08 22:40:00,60.9,51.4,29.65,NNW,341,0.0,6.0,71,0.00,,,-99.99,Weather View 32 v60,2013-06-09 05:40:00,
2013-06-08 22:45:00,61.1,51.6,29.65,NNW,341,1.0,6.0,71,0.00,,,-99.99,Weather View 32 v60,2013-06-09 05:45:00,
2013-06-08 22:50:00,61.0,51.5,29.65,NNW,341,0.0,6.0,71,0.00,,,-99.99,Weather View 32 v60,2013-06-09 05:50:00,
2013-06-08 22:55:00,60.9,51.4,29.65,NNW,341,0.0,6.0,71,0.00,,,-99.99,Weather View 32 v60,2013-06-09 05:55:00,
2013-06-08 23:00:00,60.9,51.4,29.65,NNW,341,2.0,6.0,71,0.00,,,-99.99,Weather View 32 v60,2013-06-09 06:00:00,
2013-06-08 23:05:00,61.0,51.9,29.65,NNW,341,1.0,6.0,72,0.00,,,-99.99,Weather View 32 v60,2013-06-09 06:05:00,
2013-06-08 23:10:00,60.8,51.7,29.65,NNW,341,2.0,6.0,72,0.00,,,-99.99,Weather View 32 v60,2013-06-09 06:10:00,
2013-06-08 23:20:00,60.7,51.6,29.66,NNW,341,0.0,5.0,72,0.00,,,-99.99,Weather View 32 v60,2013-06-09 06:20:00,
2013-06-08 23:25:00,60.7,51.6,29.65,NNW,341,1.0,5.0,72,0.00,,,-99.99,Weather View 32 v60,2013-06-09 06:25:00,
2013-06-08 23:30:00,60.6,51.9,29.66,NNW,341,0.0,5.0,73,0.00,,,-99.99,Weather View 32 v60,2013-06-09 06:30:00,
2013-06-08 23:40:00,60.3,51.6,29.66,NNW,341,2.0,5.0,73,0.00,,,-99.99,Weather View 32 v60,2013-06-09 06:40:00,
2013-06-08 23:45:00,60.1,51.8,29.66,NNW,341,0.0,5.0,74,0.00,,,-99.99,Weather View 32 v60,2013-06-09 06:45:00,
2013-06-08 23:50:00,60.1,52.1,29.66,NNW,341,0.0,5.0,75,0.00,,,-99.99,Weather View 32 v60,2013-06-09 06:50:00,
2013-06-08 23:55:00,60.0,52.0,29.66,NNW,341,0.0,5.0,75,0.00,,,-99.99,Weather View 32 v60,2013-06-09 06:55:00,